Wind_Speed
46 44 42 41 41 42 43 43 43 42 40 40 40 40 40 40 39 39 39 38 39 39 39 39 39 38 37 36 35 33 32 34 36 39 42 42 41 41 43 46 48 50
47 45 44 43 42 43 43 44 43 42 42 41 42 41 41 41 42 42 42 41 40 39 40 39 39 40 40 39 37 35 33 32 31 33 37 40 41 40 39 40 41 44
48 47 46 45 45 45 45 45 44 43 42 42 42 42 42 42 43 44 45 45 44 42 42 42 41 42 43 42 40 38 36 33 30 31 33 37 39 40 40 39 38 38
50 49 49 48 47 46 46 46 46 45 44 43 43 43 43 44 44 44 46 47 47 46 45 45 45 46 46 46 44 42 40 37 32 31 32 33 36 38 39 40 39 39
52 52 51 50 49 47 47 47 47 47 46 46 45 44 44 44 44 45 47 48 49 49 48 48 49 49 49 49 48 46 45 42 37 34 34 33 34 36 36 37 38 39
55 55 54 53 51 49 48 48 49 48 48 47 46 45 45 45 46 46 48 48 49 50 51 51 51 52 52 51 51 50 48 46 42 38 36 35 35 36 36 37 37 37
57 58 57 55 54 52 50 51 51 50 50 49 48 47 47 47 48 48 49 49 49 50 52 54 54 54 54 54 53 52 51 50 47 43 39 37 37 38 38 38 37 36
60 60 59 57 55 54 52 52 53 53 53 52 50 50 50 50 50 50 50 49 49 50 52 54 56 57 57 56 55 54 54 53 52 49 46 42 40 39 39 39 38 37
62 61 60 59 57 55 54 54 55 56 56 55 54 53 52 51 52 52 52 51 51 52 53 54 57 59 59 58 57 57 57 57 56 54 51 48 45 43 42 42 41 39
63 62 61 60 59 58 57 58 58 57 58 57 57 56 54 53 53 53 54 54 54 55 55 56 58 59 60 60 59 59 59 59 59 58 56 53 51 49 47 46 45 43
64 63 62 62 62 61 61 61 61 59 59 59 58 57 55 54 53 54 56 57 58 58 58 58 59 60 60 60 59 59 60 61 61 60 59 57 55 54 52 51 49 48
65 64 64 65 66 65 64 64 63 61 60 60 60 58 56 55 55 56 57 59 60 60 60 60 60 59 59 60 59 58 61 63 63 62 60 59 59 58 57 56 53 51
66 65 66 68 69 69 68 67 66 64 62 61 61 60 59 59 58 57 58 59 60 61 60 60 60 59 59 59 59 59 61 64 65 64 62 60 61 62 61 60 58 55
69 69 70 72 73 72 71 69 67 66 64 63 64 63 63 63 62 59 59 59 60 59 59 59 59 59 59 59 59 59 61 63 65 66 64 62 62 63 63 63 62 60
72 73 75 75 75 74 72 70 69 67 66 66 66 66 66 66 64 62 60 59 59 59 59 59 59 60 60 59 59 60 61 62 64 65 65 64 63 63 64 64 64 63
75 75 75 74 72 71 70 70 69 68 67 66 66 67 67 66 64 63 62 61 60 60 60 61 61 61 60 60 60 60 61 61 63 64 65 65 65 64 64 65 66 65
78 78 76 73 70 68 67 67 66 66 66 66 66 66 66 65 63 62 62 61 62 62 62 63 62 62 61 61 61 61 61 62 63 64 65 66 66 65 65 66 67 67
80 79 78 75 73 70 68 67 65 65 65 66 66 65 64 63 62 62 62 62 63 63 64 64 65 63 62 62 62 62 62 62 63 64 65 66 67 67 66 66 67 68
81 80 79 77 75 73 70 67 64 63 64 64 65 65 64 63 63 63 64 64 64 64 65 66 66 65 63 63 63 63 63 63 64 65 66 67 67 67 68 68 69 70
81 80 79 77 76 73 70 66 63 62 63 63 64 64 63 63 63 63 64 65 65 66 66 66 66 65 64 63 64 64 64 65 66 67 67 68 68 68 69 70 70 71
79 78 78 77 76 74 71 67 65 64 64 64 64 64 63 63 63 62 62 63 63 64 64 64 64 63 62 63 64 65 67 67 67 68 69 69 69 70 71 72 72 72
77 76 76 76 75 73 70 68 67 67 66 66 67 67 66 65 63 61 60 59 58 59 59 59 59 60 61 63 65 67 68 68 68 70 70 70 71 72 73 73 74 74
76 76 76 75 73 70 68 67 68 68 67 67 68 68 67 65 64 63 61 60 58 58 58 59 59 60 62 65 67 69 69 69 70 71 72 72 73 74 74 75 74 75
78 77 76 74 72 69 68 67 68 68 66 66 67 67 67 65 65 65 65 64 63 62 63 63 63 64 65 67 69 70 70 71 72 73 74 73 74 75 76 76 76 76
79 78 76 74 72 71 70 70 70 69 67 66 67 68 68 67 66 65 65 66 67 67 67 67 67 67 67 68 69 71 72 74 74 75 75 75 75 76 77 77 77 77
78 77 75 74 73 73 74 74 74 72 69 68 68 69 70 70 68 68 68 69 69 69 69 69 68 68 68 69 71 72 74 76 76 75 76 76 77 78 78 79 79 79
Wind_Direction
246 248 249 249 251 253 254 256 257 259 262 264 267 268 268 268 265 262 261 260 260 260 262 265 267 269 270 271 273 278 286 293 296 295 291 287 285 284 282 280 278 276
245 247 249 250 251 251 251 254 255 258 262 265 268 270 272 273 272 270 268 266 265 264 265 267 270 272 273 273 275 277 283 294 304 306 304 300 296 294 292 289 285 282
245 247 248 249 250 249 249 251 254 257 260 264 267 270 272 274 274 276 276 274 273 272 271 273 276 278 279 278 279 280 283 290 301 309 309 307 306 305 303 301 296 291
244 246 247 248 249 250 249 250 253 256 258 261 263 267 271 274 275 276 278 279 279 279 278 279 282 284 285 285 285 286 287 290 296 305 308 307 308 308 308 309 308 303
243 245 247 248 249 250 250 250 251 253 255 257 260 264 267 270 272 275 278 280 281 282 282 283 285 287 289 290 291 292 292 291 293 299 303 303 304 305 306 309 311 310
242 244 246 247 248 250 249 248 250 252 255 256 258 262 265 266 269 272 274 276 279 280 282 285 287 288 290 292 294 295 295 293 293 295 299 300 301 301 302 304 308 311
239 242 244 245 246 248 248 248 251 254 256 256 258 261 264 265 266 268 269 272 274 276 278 282 285 287 289 291 293 295 296 295 294 294 296 297 298 299 300 300 302 306
236 239 242 244 246 247 248 250 253 255 255 256 258 260 261 262 264 266 267 269 271 272 274 277 280 283 285 288 290 293 295 295 295 295 295 296 295 296 298 298 299 302
234 237 240 243 245 246 248 251 253 254 254 255 257 258 259 261 263 265 266 267 269 270 271 272 276 280 283 286 289 291 293 294 295 295 295 296 296 296 297 298 298 299
234 236 239 241 243 245 248 251 252 253 254 255 256 257 258 260 262 263 264 266 267 267 268 270 272 276 279 283 286 288 290 292 294 294 295 296 296 297 299 300 299 299
233 236 238 240 241 244 247 249 250 251 253 254 256 256 257 258 259 261 263 264 264 265 266 268 270 273 276 279 282 285 288 290 291 293 294 295 296 298 299 300 300 300
233 235 237 238 239 241 244 245 246 248 250 253 255 255 256 256 257 259 260 261 263 265 266 267 269 272 275 278 280 282 285 288 290 291 292 294 296 297 299 300 300 300
234 234 235 237 237 238 240 242 243 245 248 251 253 254 254 254 254 256 258 260 263 265 266 267 270 273 274 276 278 280 283 286 288 289 291 293 295 297 298 299 300 300
233 234 235 235 236 237 239 241 242 244 246 248 250 252 252 253 254 255 257 260 263 264 265 268 270 272 273 275 276 279 282 285 286 287 290 292 294 296 297 299 301 301
230 233 234 236 238 240 241 243 244 245 246 248 249 251 252 254 255 256 257 259 261 262 264 267 269 271 272 273 275 277 280 283 285 286 289 291 293 295 296 298 301 301
227 230 232 234 237 239 241 243 245 246 247 248 250 251 253 254 255 256 257 257 258 260 263 265 267 269 270 272 274 276 279 281 283 286 289 291 292 294 296 298 300 301
226 228 231 232 234 236 239 241 243 245 247 248 249 250 251 253 254 254 255 255 256 258 261 263 265 267 269 271 272 275 277 279 282 285 288 290 292 294 295 297 299 300
226 228 230 232 234 236 238 240 241 243 245 246 247 248 249 251 252 253 255 256 258 259 260 262 264 265 268 269 272 274 276 278 281 284 287 289 291 293 294 295 297 298
225 228 230 232 234 236 237 239 241 242 243 244 245 247 249 251 253 255 257 259 260 261 261 262 263 265 267 269 271 274 275 277 279 283 286 289 290 292 292 293 295 296
225 227 230 232 234 235 236 238 239 240 241 244 246 249 252 254 255 257 259 260 260 260 260 261 263 265 267 269 271 273 274 276 279 283 286 288 289 290 291 292 293 294
225 228 230 232 233 235 235 236 237 238 242 245 248 251 253 255 257 259 259 259 259 260 260 261 263 265 267 269 271 273 274 277 280 284 286 287 288 289 289 290 292 293
226 229 230 232 233 233 234 235 237 239 243 246 249 251 253 256 258 258 257 258 258 259 260 261 262 264 266 268 270 272 275 279 282 285 286 286 287 287 288 289 290 291
228 229 230 231 232 233 234 236 238 241 244 248 251 253 254 255 256 254 254 255 257 258 259 260 261 263 265 267 270 274 277 281 284 284 285 285 285 286 286 287 288 289
230 230 231 232 233 233 235 237 239 242 245 248 251 253 253 253 253 253 254 255 257 258 259 261 262 265 267 271 274 277 279 281 282 283 283 284 284 284 285 285 286 287
232 232 232 234 234 235 236 237 239 242 244 247 250 252 252 252 253 255 256 257 258 259 261 262 264 267 270 273 276 278 279 280 280 281 282 282 283 283 284 284 285 286
231 232 233 234 235 236 237 238 240 241 242 245 248 251 252 253 255 257 258 259 260 261 262 265 267 269 272 274 275 276 277 279 279 279 280 280 281 282 283 284 285 285
Height
10467 10469 10471 10472 10474 10475 10475 10476 10476 10476 10477 10478 10479 10479 10481 10482 10484 10485 10486 10487 10488 10489 10489 10489 10489 10490 10490 10492 10493 10494 10493 10493 10492 10491 10490 10489 10488 10486 10485 10483 10481 10480
10460 10462 10464 10466 10467 10468 10469 10469 10470 10471 10472 10472 10473 10473 10474 10475 10476 10477 10479 10480 10481 10482 10482 10482 10482 10483 10483 10485 10486 10487 10487 10486 10486 10485 10484 10482 10481 10479 10478 10477 10475 10473
10453 10456 10457 10459 10460 10460 10461 10463 10464 10466 10467 10467 10467 10468 10468 10468 10470 10470 10471 10472 10473 10474 10474 10475 10475 10475 10476 10477 10478 10480 10480 10480 10479 10479 10478 10476 10475 10473 10472 10470 10469 10467
10446 10448 10450 10451 10452 10454 10455 10457 10458 10460 10461 10462 10462 10463 10462 10462 10463 10464 10464 10464 10465 10466 10467 10467 10467 10467 10468 10469 10470 10471 10472 10472 10472 10472 10471 10470 10469 10467 10466 10464 10463 10461
10439 10440 10442 10444 10446 10447 10449 10451 10451 10453 10454 10455 10456 10458 10458 10457 10457 10458 10457 10458 10458 10458 10459 10459 10460 10460 10460 10461 10462 10463 10464 10465 10465 10465 10465 10464 10463 10462 10460 10459 10457 10455
10431 10433 10435 10436 10438 10440 10443 10444 10444 10446 10447 10449 10450 10451 10452 10451 10451 10451 10451 10452 10452 10452 10452 10452 10453 10453 10453 10454 10455 10456 10457 10457 10458 10458 10458 10458 10457 10456 10455 10453 10452 10450
10423 10425 10426 10428 10431 10433 10435 10436 10437 10439 10440 10442 10444 10445 10445 10445 10445 10445 10445 10446 10447 10446 10446 10446 10446 10446 10446 10447 10448 10449 10450 10450 10451 10451 10451 10451 10450 10449 10448 10447 10446 10445
10413 10416 10419 10421 10424 10426 10428 10429 10430 10432 10432 10435 10437 10438 10438 10438 10439 10439 10439 10440 10441 10441 10441 10440 10440 10440 10440 10441 10442 10442 10443 10443 10444 10444 10444 10444 10443 10442 10442 10441 10440 10439
10404 10408 10411 10414 10417 10418 10420 10421 10422 10423 10424 10427 10429 10430 10432 10432 10432 10433 10433 10433 10434 10435 10435 10435 10434 10434 10434 10434 10434 10435 10436 10436 10437 10437 10437 10437 10436 10435 10435 10434 10433 10432
10396 10401 10404 10407 10409 10411 10412 10413 10414 10415 10417 10419 10421 10423 10424 10425 10426 10427 10427 10427 10428 10428 10428 10428 10428 10428 10428 10428 10428 10427 10428 10429 10430 10430 10429 10429 10428 10428 10427 10426 10425 10425
10387 10392 10396 10399 10401 10402 10403 10404 10405 10407 10408 10410 10413 10415 10416 10417 10419 10420 10421 10421 10421 10421 10421 10421 10422 10422 10422 10422 10422 10421 10421 10421 10423 10423 10422 10421 10421 10420 10420 10419 10418 10417
10378 10383 10387 10390 10391 10392 10394 10395 10396 10398 10400 10402 10404 10406 10408 10410 10411 10413 10413 10414 10414 10414 10414 10414 10415 10415 10415 10415 10415 10415 10414 10414 10415 10416 10416 10414 10413 10412 10412 10411 10411 10409
10369 10374 10377 10379 10380 10382 10383 10385 10387 10389 10392 10394 10395 10398 10401 10402 10404 10405 10406 10406 10407 10407 10407 10407 10408 10408 10408 10408 10408 10408 10408 10407 10407 10408 10409 10408 10406 10405 10404 10403 10403 10402
10360 10363 10365 10366 10368 10371 10373 10376 10379 10381 10384 10385 10387 10390 10392 10393 10395 10397 10398 10399 10400 10400 10400 10400 10401 10401 10401 10401 10401 10401 10401 10400 10399 10400 10401 10401 10400 10398 10397 10396 10395 10394
10349 10351 10353 10355 10359 10363 10366 10369 10371 10373 10375 10377 10379 10382 10383 10384 10387 10389 10391 10392 10392 10393 10393 10393 10393 10393 10393 10393 10393 10393 10393 10393 10393 10392 10392 10393 10393 10391 10390 10388 10387 10386
10337 10340 10343 10347 10352 10356 10359 10361 10363 10365 10368 10370 10371 10373 10374 10376 10379 10381 10383 10384 10384 10385 10385 10385 10384 10384 10384 10385 10386 10386 10386 10385 10385 10385 10384 10384 10384 10384 10382 10381 10379 10378
10325 10330 10334 10339 10344 10348 10351 10353 10355 10358 10360 10361 10363 10365 10367 10369 10371 10373 10374 10375 10376 10377 10377 10376 10376 10376 10376 10377 10378 10378 10378 10378 10378 10378 10376 10375 10375 10375 10374 10373 10372 10370
10315 10320 10325 10331 10335 10338 10342 10345 10347 10350 10352 10354 10356 10357 10359 10361 10362 10364 10365 10366 10367 10368 10369 10368 10367 10367 10368 10368 10369 10370 10370 10370 10370 10370 10369 10368 10367 10367 10366 10366 10364 10362
10304 10310 10315 10321 10325 10329 10333 10337 10340 10342 10344 10345 10346 10348 10350 10353 10354 10356 10357 10358 10359 10359 10359 10359 10358 10359 10359 10359 10361 10362 10362 10362 10362 10362 10362 10360 10359 10359 10358 10357 10356 10354
10294 10300 10306 10311 10315 10319 10324 10329 10332 10333 10334 10336 10337 10339 10342 10344 10346 10348 10349 10350 10350 10350 10350 10350 10350 10350 10351 10351 10352 10353 10353 10354 10355 10355 10354 10353 10352 10351 10349 10348 10348 10347
10284 10291 10297 10301 10306 10311 10316 10321 10322 10324 10326 10328 10330 10331 10333 10335 10337 10339 10340 10340 10341 10341 10341 10342 10342 10342 10342 10342 10343 10343 10344 10346 10347 10346 10346 10345 10344 10342 10341 10339 10339 10338
10278 10283 10288 10292 10297 10303 10308 10311 10313 10316 10318 10320 10321 10322 10324 10327 10328 10330 10331 10331 10332 10333 10333 10334 10334 10334 10334 10334 10334 10335 10336 10337 10338 10337 10337 10336 10335 10334 10332 10331 10330 10329
10272 10275 10279 10283 10289 10295 10299 10303 10305 10308 10310 10311 10312 10314 10316 10319 10320 10320 10321 10322 10323 10324 10324 10325 10325 10326 10326 10326 10326 10327 10328 10328 10328 10328 10328 10327 10326 10325 10324 10323 10322 10321
10266 10269 10272 10276 10282 10287 10292 10295 10296 10299 10301 10302 10304 10305 10307 10309 10309 10310 10312 10313 10314 10315 10315 10316 10318 10318 10319 10319 10319 10320 10320 10319 10319 10318 10318 10318 10317 10315 10315 10314 10313 10313
10258 10261 10266 10270 10275 10279 10282 10285 10287 10289 10292 10293 10294 10296 10298 10299 10301 10303 10305 10306 10306 10307 10307 10309 10311 10312 10312 10313 10312 10312 10311 10310 10310 10310 10309 10308 10307 10306 10305 10304 10304 10304
10248 10253 10258 10262 10266 10270 10272 10275 10277 10280 10283 10284 10286 10288 10289 10291 10294 10295 10297 10297 10297 10299 10300 10302 10304 10305 10305 10305 10304 10304 10303 10301 10301 10301 10299 10297 10296 10296 10295 10295 10295 10295